Location: Unnamed
(48.6007°N, 2.4808°E)
Time: 05:42:19
(UTC+01:00)

FENGYUN 1C DEB - Pass Details

Date: 06 December 2023
Orbit: 508 x 828 km, 98.6° (Epoch: 21 February)

Event Time Altitude Azimuth Distance (km) Brightness Sun altitude
Rises 04:35:03 0° 16° (NNE) 3,334 ? -37.3°
Reaches altitude 10° 04:37:23 10° 18° (NNE) 2,429 ? -36.9°
Enters shadow 04:37:51 13° 19° (NNE) 2,251 ? -36.8°
